This demonstration page uses our WeatherBlox Daily Observations layout. Learn more.

Left ArrowRight Arrow

Hourly Observations for October 19, 2018

Temp ( °F °C ) Dew Point ( °F °C ) Humidity (%) Winds ( mph kmh ) Pressure ( in mb ) Visibility ( mi km ) Precip ( " mm )
12:54 am 00:54 Cloudy 56 13.3 44 6.7 65 65 S 12 19 30.15 1021 10 16.0934 0 0.0254
1:54 am 01:54 Cloudy with Light Rain 56 13.3 45 7.2 67 67 SSW 12 19 30.14 1021 10 16.0934 0 0.0254
2:54 am 02:54 Cloudy with Light Rain 54 12.2 47 8.3 77 77 SSW 9 15 30.14 1021 10 16.0934 0.01 0.254
3:54 am 03:54 Cloudy 53 11.7 49 9.4 86 86 S 10 17 30.09 1019 10 16.0934 0 0.0254
4:54 am 04:54 Cloudy 52 11.1 48 8.9 86 86 S 9 15 30.06 1018 10 16.0934 0 0
5:54 am 05:54 Cloudy 53 11.7 48 8.9 83 83 SSW 12 19 30.04 1017 10 16.0934 0 0
6:24 am 06:24 Cloudy 53 11.7 48 8.9 83 83 SSW 14 22 30.03 1017 10 16.0934 0 0
6:38 am 06:38 Cloudy 54 12.2 48 8.9 80 80 SSW 13 20 30.06 1018 10 16.0934 0 0
6:54 am 06:54 Cloudy 54 12.2 48 8.9 80 80 SSW 13 20 30.04 1017 10 16.0934 0 0
7:54 am 07:54 Partly Cloudy 54 12.2 49 9.4 83 83 SW 13 20 30.03 1017 10 16.0934 0 0
8:54 am 08:54 Sunny 55 12.8 49 9.4 80 80 SSW 14 22 30.04 1017 10 16.0934 0 0
9:54 am 09:54 Sunny 58 14.4 49 9.4 72 72 SW 21 33 30.04 1017 10 16.0934 0 0
10:54 am 10:54 Sunny 61 16.1 49 9.4 65 65 WSW 18 30 30.02 1017 10 16.0934 0 0
11:54 am 11:54 Sunny 64 17.8 49 9.4 58 58 W 17 28 30.01 1016 10 16.0934 0 0
12:54 pm 12:54 Sunny 68 20 49 9.4 51 51 W 16 26 30.01 1016 10 16.0934 0 0
1:54 pm 13:54 Sunny 72 22.2 47 8.3 41 41 WNW 13 20 29.99 1016 10 16.0934 0 0
2:54 pm 14:54 Sunny 76 24.4 44 6.7 32 32 NNW 20 31 29.98 1015 10 16.0934 0 0
3:54 pm 15:54 Sunny 75 23.9 42 5.6 31 31 NNW 21 33 29.99 1016 10 16.0934 0 0
4:54 pm 16:54 Sunny 73 22.8 37 2.8 27 27 NNW 16 26 30.01 1016 10 16.0934 0 0
5:54 pm 17:54 Sunny 70 21.1 37 2.8 30 30 NNW 14 22 30.05 1018 10 16.0934 0 0
6:54 pm 18:54 Clear 65 18.3 37 2.8 36 36 NW 8 13 30.08 1019 10 16.0934 0 0
7:54 pm 19:54 Clear 55 12.8 37 2.8 51 51 NNW 9 15 30.11 1020 10 16.0934 0 0
8:54 pm 20:54 Clear 58 14.4 34 1.1 41 41 NNW 6 9 30.14 1021 10 16.0934 0 0
9:54 pm 21:54 Clear 55 12.8 34 1.1 45 45 WNW 6 9 30.16 1021 10 16.0934 0 0
10:54 pm 22:54 Clear 54 12.2 34 1.1 47 47 NNW 12 19 30.19 1022 10 16.0934 0 0
11:54 pm 23:54 Clear 46 7.8 33 0.6 61 61 Calm 30.21 1023 10 16.0934 0 0

Powered by AerisWeather